Gressoney, Italy 16 day weather forecast

Slopes altitude range -1 m - -1m

Number of lifts: -1 Pistes: -1km

In some cases the lift and piste totals shown are for the ski domain (e.g. Three Valleys) rather than individual resort (e.g. Courchevel)

Overview

The 16 day weather forecast is fully updated 4 times every day.

    • Thu 21 FEB 2019
    • Thu 21
    • 9C 13C
    • Fri 22 FEB 2019
    • Fri 22
    • 7C 16C
    • Sat 23 FEB 2019
    • Sat 23
    • 6C 8C
    • Sun 24 FEB 2019
    • Sun 24
    • 0C 7C
    • Mon 25 FEB 2019
    • Mon 25
    • 2C 11C
    • Tue 26 FEB 2019
    • Tue 26
    • 7C 16C
    • Wed 27 FEB 2019
    • Wed 27
    • 9C 18C
    • Thu 28 FEB 2019
    • Thu 28
    • 8C 17C
    • Fri 01 MAR 2019
    • Fri 01
    • -1C 4C
    • Sat 02 MAR 2019
    • Sat 02
    • -3C 2C
    • Sun 03 MAR 2019
    • Sun 03
    • -2C 1C
    • Mon 04 MAR 2019
    • Mon 04
    • -2C 4C
    • Tue 05 MAR 2019
    • Tue 05
    • -2C 3C
    • Wed 06 MAR 2019
    • Wed 06
    • -3C 2C
    • Thu 07 MAR 2019
    • Thu 07
    • -6C -2C
    • Fri 08 MAR 2019
    • Fri 08
    • -13C -5C

Date:

Time Type 0°C level Temp Chill Snow Cloud Speed Gust Dir Press
18:00 2651m 13°C 13_1 0cm 17% 1mph 1mph 1028mB
21:00 2666m 9°C 9_2 0cm 0% 2mph 3mph 1029mB
0:00 2655m 8°C 8_4 0cm 0% 4mph 4mph 1029mB
3:00 2700m 8°C 8_4 0cm 1% 4mph 5mph 1029mB
6:00 2908m 7°C 7_4 0cm 3% 4mph 4mph 1029mB
9:00 2990m 7°C 7_2 0cm 0% 2mph 3mph 1027mB
12:00 2985m 16°C 16_6 0cm 0% 6mph 6mph 1026mB
15:00 2943m 16°C 16_6 0cm 4% 6mph 6mph 1025mB
18:00 2874m 16°C 16_2 0cm 5% 2mph 3mph 1028mB
21:00 2871m 10°C 10_4 0cm 0% 4mph 5mph 1030mB
0:00 3050m 9°C 9_2 0cm 0% 2mph 3mph 1030mB
3:00 3116m 8°C 8_2 0cm 0% 2mph 3mph 1030mB
6:00 3279m 6°C 6_4 0cm 0% 4mph 6mph 1031mB
9:00 3262m 6°C 6_7 0cm 2% 7mph 10mph 1031mB
12:00 3092m 8°C 8_8 0cm 5% 8mph 9mph 1030mB
15:00 2991m 8°C 8_7 0cm 2% 7mph 9mph 1030mB
18:00 1170m 8°C 8_4 0cm 3% 4mph 8mph 1032mB
21:00 929m 3°C 3_3 0cm 1% 3mph 5mph 1033mB
0:00 779m 1°C 1_3 0cm 1% 3mph 4mph 1034mB
3:00 697m 1°C 1_3 0cm 0% 3mph 4mph 1034mB
6:00 508m 0°C 0_3 0cm 0% 3mph 3mph 1034mB
9:00 717m 0°C 0_5 0cm 0% 5mph 5mph 1034mB
12:00 2865m 7°C 7_5 0cm 0% 5mph 3mph 1033mB
15:00 3009m 8°C 8_5 0cm 1% 5mph 4mph 1032mB
18:00 3135m 8°C 8_1 0cm 1% 1mph 2mph 1033mB
21:00 3146m 4°C 4_1 0cm 0% 1mph 1mph 1034mB
0:00 3093m 3°C 3_1 0cm 0% 1mph 1mph 1034mB
3:00 3078m 3°C 3_2 0cm 0% 2mph 3mph 1033mB
6:00 2867m 2°C 2_3 0cm 0% 3mph 3mph 1034mB
9:00 2158m 2°C 2_2 0cm 0% 2mph 3mph 1036mB
12:00 2090m 11°C 11_5 0cm 0% 5mph 4mph 1035mB
15:00 2215m 13°C 13_3 0cm 0% 3mph 4mph 1034mB
18:00 2441m 13°C 13_3 0cm 0% 3mph 4mph 1035mB
21:00 2588m 7°C 7_4 0cm 0% 4mph 5mph 1035mB
0:00 2693m 7°C 7_3 0cm 0% 3mph 4mph 1035mB
3:00 2873m 7°C 7_3 0cm 8% 3mph 4mph 1033mB
6:00 3077m 7°C 7_4 0cm 4% 4mph 4mph 1032mB
9:00 3149m 7°C 7_2 0cm 0% 2mph 2mph 1030mB
12:00 3151m 16°C 16_4 0cm 2% 4mph 2mph 1029mB
15:00 3150m 16°C 16_4 0cm 8% 4mph 2mph 1027mB
18:00 3235m 16°C 16_2 0cm 6% 2mph 3mph 1028mB
21:00 3318m 10°C 10_3 0cm 0% 3mph 4mph 1028mB
0:00 3346m 10°C 10_3 0cm 0% 3mph 4mph 1028mB
3:00 3372m 9°C 9_3 0cm 0% 3mph 4mph 1026mB
6:00 3379m 9°C 9_4 0cm 0% 4mph 5mph 1025mB
9:00 3391m 9°C 9_2 0cm 0% 2mph 3mph 1024mB
12:00 3404m 18°C 18_4 0cm 0% 4mph 3mph 1024mB
15:00 3368m 18°C 18_4 0cm 0% 4mph 4mph 1022mB
18:00 3348m 18°C 18_2 0cm 3% 2mph 3mph 1024mB
21:00 3298m 10°C 10_3 0cm 14% 3mph 4mph 1025mB
0:00 3258m 9°C 9_3 0cm 11% 3mph 3mph 1025mB
3:00 3228m 8°C 8_2 0cm 19% 2mph 3mph 1024mB
6:00 3184m 8°C 8_2 0cm 25% 2mph 3mph 1024mB
9:00 3169m 8°C 8_3 0cm 51% 3mph 4mph 1024mB
12:00 3171m 17°C 17_6 0cm 73% 6mph 4mph 1022mB
15:00 3146m 17°C 17_5 0cm 49% 5mph 5mph 1021mB
18:00 3117m 17°C 17_1 0cm 30% 1mph 2mph 1022mB
21:00 3041m 11°C 11_3 0cm 18% 3mph 4mph 1023mB
0:00 2968m 10°C 10_3 0cm 9% 3mph 4mph 1023mB
3:00 2299m -1°C -1_7 0cm 96% 7mph 7mph 1023mB
6:00 2227m -1°C -1_6 0cm 97% 6mph 7mph 1024mB
9:00 2603m -1°C -1_1 0cm 96% 1mph 2mph 1023mB
12:00 2632m 4°C 4_2 0cm 97% 2mph 2mph 1022mB
15:00 2597m 4°C 4_1 0cm 98% 1mph 1mph 1021mB
18:00 2260m 4°C 4_3 0cm 97% 3mph 4mph 1023mB
21:00 2205m -1°C -1_3 0cm 96% 3mph 4mph 1024mB
0:00 2110m -2°C -2_3 0cm 95% 3mph 3mph 1023mB
3:00 2009m -2°C -2_3 0cm 94% 3mph 4mph 1022mB
6:00 1896m -3°C -3_4 0cm 95% 4mph 5mph 1022mB
9:00 2248m -3°C -3_2 0cm 95% 2mph 2mph 1022mB
12:00 2452m 2°C 2_2 0cm 96% 2mph 2mph 1020mB
15:00 2493m 3°C 3_2 0cm 60% 2mph 3mph 1018mB
18:00 2147m 3°C 3_6 0cm 38% 6mph 7mph 1020mB
21:00 2048m -2°C -2_8 0cm 70% 8mph 8mph 1019mB
0:00 2099m -2°C -2_9 1cm 74% 9mph 11mph 1018mB
3:00 2062m -2°C -2_10 1cm 89% 10mph 12mph 1017mB
6:00 2057m -2°C -2_11 1cm 92% 11mph 13mph 1019mB
9:00 2182m -2°C -2_13 1cm 75% 13mph 16mph 1021mB
12:00 2320m 1°C 1_13 1cm 53% 13mph 15mph 1021mB
Morning 0.00520833mm 0 2266m -1°C -1_7 0cm 80% 7mph 8mph 1023mB
Afternoon 0mm 0 2301m 4°C 4_8 0cm 71% 8mph 10mph 1015mB
Morning 0.473958mm 0.0625 2151m 1°C 1_6 4cm 100% 6mph 8mph 1014mB
Afternoon 0.0677083mm 0.125 2100m 3°C 3_6 1cm 84% 6mph 9mph 1010mB
Morning 0.130208mm 0.25 1787m -2°C -2_7 2cm 77% 7mph 9mph 1007mB
Afternoon 0.375mm 3.0625 1942m 2°C 2_11 0cm 65% 11mph 14mph 1010mB
Morning 0.0208333mm 0 1458m -3°C -3_11 0cm 77% 11mph 18mph 1014mB
Afternoon 0mm 0 1484m -2°C -2_14 0cm 50% 14mph 19mph 1019mB
Morning 0.0260417mm 0 328m -10°C -10_13 0cm 44% 13mph 21mph 1030mB
Afternoon 0mm 0 1079m -5°C -5_11 0cm 28% 11mph 15mph 1032mB
Morning 0mm 0 389m -10°C -10_4 0cm 18% 4mph 5mph 1037mB
Afternoon 0mm 0 1858m 1°C 1_3 0cm 61% 3mph 5mph 1029mB

16 day outlook at a glance

Forecast issued: 21/02/2019 18:12:19

Chat

Your comments and questions. In a resort? Let us know what it's like!


Characters left 250

For terms and conditions see Readers Comments on the Cookie and privacy policy page.